FW1683 Weather Reports


Display with metric or nautical units.
time (UTC)temp
F
wind
direction
speed
MPH
gust
MPH
rain 1hr
in
rain 24hr
in
rain mn
in
humidity
%
barometer
mb
20260506194009 64 71 4.0 7.0 0.00 0.00 0.00 62 1011.3
20260506193007 64 96 4.0 7.0 0.00 0.00 0.00 62 1011.2
20260506192009 64 97 4.0 7.0 0.00 0.00 0.00 62 1011.0
20260506191007 64 82 5.0 8.0 0.00 0.00 0.00 61 1011.0
20260506190026 65 92 5.0 8.0 0.00 0.00 0.00 62 1010.9
20260506185008 65 87 5.0 8.0 0.00 0.00 0.00 61 1010.8
20260506183006 65 99 5.0 7.0 0.00 0.00 0.00 59 1010.7
20260506182008 65 111 5.0 9.0 0.00 0.00 0.00 59 1010.6
20260506181025 65 112 6.0 9.0 0.00 0.00 0.00 58 1010.5
20260506180009 65 116 6.0 11.0 0.00 0.00 0.00 58 1010.4
20260506175009 65 120 8.0 12.0 0.00 0.00 0.00 57 1010.4
20260506174008 66 95 6.0 9.0 0.00 0.00 0.00 58 1010.4
20260506173019 67 82 7.0 12.0 0.00 0.00 0.00 56 1010.5
20260506172008 67 74 8.0 12.0 0.00 0.00 0.00 55 1010.5
20260506170009 68 95 9.0 14.0 0.00 0.00 0.00 55 1010.6
20260506165008 69 97 7.0 12.0 0.00 0.00 0.00 52 1010.8
20260506164008 68 94 7.0 11.0 0.00 0.00 0.00 53 1010.6
20260506163019 68 92 7.0 11.0 0.00 0.00 0.00 53 1010.7
20260506162007 67 98 8.0 13.0 0.00 0.00 0.00 51 1010.7
20260506161009 68 96 8.0 14.0 0.00 0.00 0.00 53 1010.6
20260506160032 68 113 8.0 12.0 0.00 0.00 0.00 53 1010.6
20260506155008 67 103 7.0 11.0 0.00 0.00 0.00 53 1010.6
20260506154008 68 83 8.0 14.0 0.00 0.00 0.00 55 1010.6
20260506153007 69 89 11.0 17.0 0.00 0.00 0.00 53 1010.5
20260506152007 69 106 11.0 18.0 0.00 0.00 0.00 52 1010.3
20260506151010 67 103 11.0 16.0 0.00 0.00 0.00 55 1010.1
20260506145008 67 116 6.0 9.0 0.00 0.00 0.00 54 1010.8
20260506144008 68 120 6.0 10.0 0.00 0.00 0.00 55 1011.0
20260506143008 68 95 8.0 12.0 0.00 0.00 0.00 55 1010.8
20260506142008 67 119 7.0 13.0 0.00 0.00 0.00 57 1011.0
20260506141007 67 115 9.0 15.0 0.00 0.00 0.00 56 1010.9
20260506140012 67 114 9.0 14.0 0.00 0.00 0.00 56 1010.9
20260506135007 67 105 11.0 17.0 0.00 0.00 0.00 57 1010.9
20260506134008 68 113 12.0 19.0 0.00 0.00 0.00 56 1010.9
20260506133008 69 114 9.0 15.0 0.00 0.00 0.00 54 1010.9
20260506132007 69 122 10.0 16.0 0.00 0.00 0.00 51 1011.0
20260506131008 70 117 11.0 16.0 0.00 0.00 0.00 47 1011.0
20260506130024 71 128 11.0 17.0 0.00 0.00 0.00 46 1011.1
20260506125006 70 131 12.0 18.0 0.00 0.00 0.00 48 1011.1
20260506124008 70 124 12.0 19.0 0.00 0.00 0.00 49 1011.2
20260506123020 70 130 11.0 15.0 0.00 0.00 0.00 47 1011.2
20260506121007 70 122 10.0 15.0 0.00 0.00 0.00 49 1011.3
20260506120011 71 119 9.0 15.0 0.00 0.00 0.00 48 1011.4
20260506114010 70 115 10.0 15.0 0.00 0.00 0.00 48 1011.5
20260506113009 71 115 10.0 15.0 0.00 0.00 0.00 48 1011.5
20260506112021 71 114 9.0 14.0 0.00 0.00 0.00 46 1011.6
20260506111008 70 121 9.0 14.0 0.00 0.00 0.00 47 1011.5
20260506110019 70 114 9.0 14.0 0.00 0.00 0.00 44 1011.5
20260506105008 70 109 9.0 13.0 0.00 0.00 0.00 43 1011.6
20260506104008 71 120 9.0 14.0 0.00 0.00 0.00 43 1011.7
20260506103021 71 111 9.0 14.0 0.00 0.00 0.00 41 1011.7
20260506102008 72 138 7.0 11.0 0.00 0.00 0.00 41 1011.7
20260506100010 72 134 5.0 9.0 0.00 0.00 0.00 41 1011.7
20260506094008 71 131 5.0 8.0 0.00 0.00 0.00 44 1011.7
20260506092008 71 133 4.0 7.0 0.00 0.00 0.00 44 1011.7
20260506090025 71 175 3.0 5.0 0.00 0.00 0.00 45 1011.7
20260506085008 70 219 3.0 5.0 0.00 0.00 0.00 48 1011.7
20260506084008 70 198 3.0 6.0 0.00 0.00 0.00 49 1011.8
20260506083014 68 215 1.0 3.0 0.00 0.00 0.00 51 1011.9
20260506082008 68 287 2.0 4.0 0.00 0.00 0.00 51 1011.8
20260506081009 68 285 2.0 4.0 0.00 0.00 0.00 54 1011.8
20260506072009 64 276 4.0 7.0 0.00 0.00 0.00 59 1011.8
20260506071008 63 309 4.0 8.0 0.00 0.00 0.00 59 1011.8
20260506061008 59 303 6.0 10.0 0.00 0.00 0.00 68 1011.5
20260506051008 57 308 6.0 10.0 0.00 0.00 0.00 76 1011.2
20260506044008 57 283 4.0 6.0 0.00 0.00 0.00 76 1011.2
20260506043009 57 271 5.0 7.0 0.00 0.00 0.00 76 1011.2
20260506042028 57 277 5.0 8.0 0.00 0.00 0.00 75 1011.0
20260506041010 58 284 4.0 6.0 0.00 0.00 0.00 74 1010.9
20260506040034 58 281 3.0 5.0 0.00 0.00 0.00 73 1010.8
20260506035008 58 306 5.0 7.0 0.00 0.00 0.00 73 1010.9
20260506034008 59 311 5.0 8.0 0.00 0.00 0.00 72 1010.9
20260506033014 59 313 4.0 7.0 0.00 0.00 0.00 71 1010.9
20260506032007 59 312 4.0 6.0 0.00 0.00 0.00 70 1011.0
20260506031009 59 337 4.0 6.0 0.00 0.00 0.00 70 1011.1
20260506030028 59 336 4.0 7.0 0.00 0.00 0.00 71 1011.1
20260506025008 59 318 5.0 8.0 0.00 0.00 0.00 70 1011.1
20260506024008 60 309 5.0 9.0 0.00 0.00 0.00 69 1011.1
20260506023017 60 301 3.0 6.0 0.00 0.00 0.00 68 1011.1
20260506022011 59 263 4.0 6.0 0.00 0.00 0.00 69 1011.1
20260506021008 59 268 3.0 6.0 0.00 0.00 0.00 68 1011.0
20260506020031 60 272 4.0 5.0 0.00 0.00 0.00 67 1011.0
20260506015007 60 284 5.0 8.0 0.00 0.00 0.00 67 1010.9
20260506013011 60 309 5.0 8.0 0.00 0.00 0.00 64 1010.9
20260506012009 60 316 2.0 4.0 0.00 0.00 0.00 62 1010.9
20260506011008 61 315 2.0 3.0 0.00 0.00 0.00 61 1011.0
20260506010009 60 274 2.0 3.0 0.00 0.00 0.00 62 1011.1
20260506005009 61 270 2.0 4.0 0.00 0.00 0.00 62 1011.2
20260506004008 61 244 2.0 3.0 0.00 0.00 0.00 61 1011.3
20260506003026 61 228 2.0 4.0 0.00 0.00 0.00 61 1011.4
20260506002007 62 354 0.0 1.0 0.00 0.00 0.00 59 1011.5
20260506001009 62 1 1.0 3.0 0.00 0.00 0.00 58 1011.5
20260505235008 62 20 2.0 4.0 0.00 0.00 0.00 57 1011.6
20260505234008 62 8 2.0 4.0 0.00 0.00 0.00 57 1011.6
20260505233011 62 0 2.0 3.0 0.00 0.00 0.00 57 1011.6
20260505232006 62 14 3.0 6.0 0.00 0.00 0.00 57 1011.6
20260505231007 62 33 4.0 6.0 0.00 0.00 0.00 57 1011.5
20260505225007 63 47 7.0 12.0 0.00 0.00 0.00 58 1011.3
20260505224008 63 36 7.0 11.0 0.00 0.00 0.00 58 1011.3
20260505223007 63 23 7.0 13.0 0.00 0.00 0.00 58 1011.2
20260505220010 64 29 9.0 17.0 0.00 0.00 0.00 59 1011.1
20260505213011 64 42 12.0 19.0 0.00 0.00 0.00 60 1011.0
20260505211007 64 46 15.0 24.0 0.00 0.00 0.00 62 1011.1
20260505210011 64 45 13.0 22.0 0.00 0.00 0.00 65 1010.9
20260505205011 65 46 13.0 21.0 0.00 0.00 0.00 68 1010.8
20260505204015 65 47 14.0 22.0 0.00 0.00 0.00 69 1010.7
20260505203012 65 42 13.0 21.0 0.00 0.00 0.00 70 1010.6
20260505202011 65 49 14.0 22.0 0.00 0.00 0.00 72 1010.4
20260505200009 66 43 15.0 23.0 0.00 0.00 0.00 73 1010.1
20260505195010 67 40 14.0 24.0 0.00 0.00 0.00 74 1009.7